K5RLH Weather Reports


time (UTC)temp
F
wind
direction
speed
knots
gust
knots
rain 1hr
in
rain 24hr
in
rain mn
in
humidity
%
barometer
mb
20260906175313 91 147 5.2 7.8 0.00 0.00 0.00 7 1015.0
20260906174814 91 163 6.1 7.8 0.00 0.00 0.00 7 1015.0
20260906174313 91 127 2.6 4.3 0.00 0.00 0.00 7 1016.0
20260906173813 91 171 6.1 7.8 0.00 0.00 0.00 7 1016.0
20260906173315 91 169 4.3 7.8 0.00 0.00 0.00 7 1016.0
20260906172813 91 185 3.5 5.2 0.00 0.00 0.00 7 1016.0
20260906172314 91 185 2.6 4.3 0.00 0.00 0.00 7 1016.0
20260906171813 91 154 3.5 5.2 0.00 0.00 0.00 7 1016.0
20260906171313 91 151 2.6 4.3 0.00 0.00 0.00 7 1016.0
20260906170815 91 145 3.5 5.2 0.00 0.00 0.00 7 1016.0
20260906170314 91 158 4.3 5.2 0.00 0.00 0.00 7 1016.0
20260906165814 91 125 1.7 2.6 0.00 0.00 0.00 7 1016.0
20260906165313 91 121 1.7 2.6 0.00 0.00 0.00 7 1016.0
20260906164814 91 110 2.6 3.5 0.00 0.00 0.00 7 1016.0
20260906164314 91 138 1.7 2.6 0.00 0.00 0.00 7 1016.0
20260906163813 90 112 1.7 3.5 0.00 0.00 0.00 7 1016.0
20260906163313 90 126 2.6 4.3 0.00 0.00 0.00 7 1016.0
20260906162813 90 135 3.5 5.2 0.00 0.00 0.00 7 1016.0
20260906162313 90 111 2.6 3.5 0.00 0.00 0.00 7 1016.0
20260906161814 90 90 2.6 3.5 0.00 0.00 0.00 7 1016.0
20260906161313 90 104 2.6 4.3 0.00 0.00 0.00 7 1016.0
20260906160813 90 153 3.5 5.2 0.00 0.00 0.00 7 1016.0
20260906160313 90 159 3.5 5.2 0.00 0.00 0.00 7 1016.0
20260906155813 90 117 2.6 3.5 0.00 0.00 0.00 7 1016.0
20260906155313 90 120 3.5 3.5 0.00 0.00 0.00 7 1016.0
20260906154815 89 114 2.6 4.3 0.00 0.00 0.00 7 1016.0
20260906154314 89 120 3.5 5.2 0.00 0.00 0.00 7 1016.0
20260906153813 89 154 2.6 3.5 0.00 0.00 0.00 7 1016.0
20260906153314 89 148 3.5 5.2 0.00 0.00 0.00 7 1016.0
20260906152813 89 102 1.7 2.6 0.00 0.00 0.00 7 1016.0
20260906152314 88 76 1.7 2.6 0.00 0.00 0.00 7 1016.0
20260906151813 88 101 2.6 3.5 0.00 0.00 0.00 7 1016.0
20260906151313 88 128 2.6 3.5 0.00 0.00 0.00 7 1016.0
20260906150813 87 75 1.7 2.6 0.00 0.00 0.00 7 1016.0
20260906150313 87 74 2.6 3.5 0.00 0.00 0.00 7 1016.0
20260906145813 86 115 3.5 4.3 0.00 0.00 0.00 7 1016.0
20260906145313 86 65 2.6 3.5 0.00 0.00 0.00 7 1016.0
20260906144813 85 99 2.6 3.5 0.00 0.00 0.00 7 1016.0
20260906144314 85 110 2.6 3.5 0.00 0.00 0.00 7 1016.0
20260906143814 84 102 2.6 5.2 0.00 0.00 0.00 7 1016.0
20260906143313 84 81 3.5 4.3 0.00 0.00 0.00 7 1016.0
20260906142813 84 103 3.5 4.3 0.00 0.00 0.00 7 1016.0
20260906142313 83 84 2.6 2.6 0.00 0.00 0.00 7 1016.0
20260906141813 83 98 2.6 3.5 0.00 0.00 0.00 7 1016.0
20260906141313 83 110 2.6 3.5 0.00 0.00 0.00 7 1016.0
20260906140813 83 91 0.9 1.7 0.00 0.00 0.00 7 1016.0
20260906140314 84 111 2.6 3.5 0.00 0.00 0.00 7 1016.0
20260906135813 84 86 0.9 1.7 0.00 0.00 0.00 7 1016.0
20260906135314 85 63 1.7 1.7 0.00 0.00 0.00 7 1016.0
20260906134813 84 28 0.9 1.7 0.00 0.00 0.00 7 1016.0
20260906134314 83 257 1.7 3.5 0.00 0.00 0.00 7 1016.0
20260906133815 82 107 0.0 0.9 0.00 0.00 0.00 7 1016.0
20260906133313 80 51 0.9 1.7 0.00 0.00 0.00 7 1016.0
20260906132813 80 19 0.9 2.6 0.00 0.00 0.00 7 1016.0
20260906132313 78 20 0.0 0.9 0.00 0.00 0.00 7 1016.0
20260906131813 77 22 0.9 1.7 0.00 0.00 0.00 7 1016.0
20260906131313 76 347 0.9 1.7 0.00 0.00 0.00 7 1016.0
20260906130813 76 336 0.9 1.7 0.00 0.00 0.00 7 1016.0
20260906130313 76 316 0.9 1.7 0.00 0.00 0.00 7 1016.0
20260906125814 76 341 0.9 0.9 0.00 0.00 0.00 7 1016.0
20260906125313 75 203 0.0 0.9 0.00 0.00 0.00 7 1016.0
20260906124813 74 135 0.9 1.7 0.00 0.00 0.00 7 1015.0
20260906124314 73 93 0.9 3.5 0.00 0.00 0.00 7 1015.0
20260906123813 73 79 0.9 2.6 0.00 0.00 0.00 7 1015.0
20260906123313 72 62 0.9 1.7 0.00 0.00 0.00 7 1015.0
20260906122813 72 59 1.7 1.7 0.00 0.00 0.00 7 1015.0
20260906122314 72 43 1.7 4.3 0.00 0.00 0.00 7 1015.0
20260906121813 72 261 1.7 3.5 0.00 0.00 0.00 7 1015.0
20260906121314 72 231 2.6 4.3 0.00 0.00 0.00 7 1015.0
20260906120813 72 81 2.6 4.3 0.00 0.00 0.00 7 1015.0
20260906120313 72 223 1.7 3.5 0.00 0.00 0.00 7 1015.0
20260906115813 72 48 0.9 3.5 0.00 0.00 0.00 7 1015.0
20260906115313 72 198 1.7 2.6 0.00 0.00 0.00 7 1015.0
20260906114813 71 204 1.7 1.7 0.00 0.00 0.00 7 1015.0
20260906114313 72 204 0.9 2.6 0.00 0.00 0.00 7 1015.0
20260906113817 72 221 0.9 1.7 0.00 0.00 0.00 7 1015.0
20260906113313 72 220 0.9 3.5 0.00 0.00 0.00 7 1015.0
20260906112813 72 93 0.9 1.7 0.00 0.00 0.00 7 1015.0
20260906112314 72 233 1.7 3.5 0.00 0.00 0.00 7 1015.0
20260906111813 72 201 0.9 2.6 0.00 0.00 0.00 7 1015.0
20260906111313 72 74 0.9 1.7 0.00 0.00 0.00 7 1015.0
20260906110813 72 54 1.7 2.6 0.00 0.00 0.00 7 1015.0
20260906110313 72 324 3.5 5.2 0.00 0.00 0.00 7 1015.0
20260906105813 72 259 3.5 5.2 0.00 0.00 0.00 7 1015.0
20260906105313 72 261 1.7 2.6 0.00 0.00 0.00 7 1015.0
20260906104813 72 225 1.7 3.5 0.00 0.00 0.00 7 1015.0
20260906104314 72 300 1.7 2.6 0.00 0.00 0.00 7 1015.0
20260906103813 73 278 0.9 1.7 0.00 0.00 0.00 7 1015.0
20260906103314 73 275 1.7 2.6 0.00 0.00 0.00 7 1015.0
20260906102813 73 336 1.7 5.2 0.00 0.00 0.00 7 1015.0
20260906102313 74 28 3.5 5.2 0.00 0.00 0.00 7 1015.0
20260906101813 74 318 2.6 3.5 0.00 0.00 0.00 7 1015.0
20260906101313 74 26 1.7 3.5 0.00 0.00 0.00 7 1015.0
20260906100815 74 335 1.7 1.7 0.00 0.00 0.00 7 1015.0
20260906100313 74 284 1.7 3.5 0.00 0.00 0.00 7 1015.0
20260906095813 74 280 0.9 1.7 0.00 0.00 0.00 7 1015.0
20260906095317 74 336 1.7 1.7 0.00 0.00 0.00 7 1015.0
20260906094813 74 243 0.9 2.6 0.00 0.00 0.00 7 1015.0
20260906094313 74 270 1.7 1.7 0.00 0.00 0.00 7 1015.0
20260906093815 74 315 0.9 1.7 0.00 0.00 0.00 7 1014.0
20260906093313 74 260 0.9 1.7 0.00 0.00 0.00 7 1014.0
20260906092813 74 313 1.7 2.6 0.00 0.00 0.00 7 1014.0
20260906092313 74 324 2.6 2.6 0.00 0.00 0.00 7 1014.0
20260906091813 74 313 1.7 1.7 0.00 0.00 0.00 7 1014.0
20260906091313 74 292 1.7 2.6 0.00 0.00 0.00 7 1014.0
20260906090813 74 303 1.7 2.6 0.00 0.00 0.00 7 1014.0
20260906090314 74 272 1.7 2.6 0.00 0.00 0.00 7 1014.0
20260906085813 74 297 1.7 2.6 0.00 0.00 0.00 7 1014.0
20260906085313 75 308 1.7 2.6 0.00 0.00 0.00 7 1014.0
20260906084813 75 286 1.7 3.5 0.00 0.00 0.00 7 1014.0
20260906084313 76 251 0.9 1.7 0.00 0.00 0.00 7 1014.0
20260906083813 76 279 0.9 2.6 0.00 0.00 0.00 7 1014.0
20260906083313 77 357 1.7 2.6 0.00 0.00 0.00 7 1014.0
20260906082814 77 3 1.7 1.7 0.00 0.00 0.00 7 1014.0
20260906082313 77 342 1.7 1.7 0.00 0.00 0.00 7 1014.0
20260906081813 77 335 1.7 1.7 0.00 0.00 0.00 7 1014.0
20260906081313 76 327 1.7 1.7 0.00 0.00 0.00 7 1014.0
20260906080814 76 15 0.9 1.7 0.00 0.00 0.00 7 1014.0
20260906080313 76 48 1.7 2.6 0.00 0.00 0.00 7 1014.0
20260906075813 75 24 1.7 3.5 0.00 0.00 0.00 7 1014.0
20260906075313 76 7 0.9 1.7 0.00 0.00 0.00 7 1014.0
20260906074813 76 353 1.7 2.6 0.00 0.00 0.00 7 1014.0
20260906074313 77 357 1.7 2.6 0.00 0.00 0.00 7 1014.0
20260906073813 78 357 1.7 2.6 0.00 0.00 0.00 7 1014.0
20260906073313 78 360 1.7 1.7 0.00 0.00 0.00 7 1014.0
20260906072813 78 104 0.9 0.9 0.00 0.00 0.00 7 1014.0
20260906072313 78 154 0.9 1.7 0.00 0.00 0.00 7 1014.0
20260906071813 78 24 0.9 0.9 0.00 0.00 0.00 7 1014.0
20260906071313 78 58 0.9 1.7 0.00 0.00 0.00 7 1014.0
20260906070816 78 43 0.9 1.7 0.00 0.00 0.00 7 1014.0
20260906070313 79 28 1.7 2.6 0.00 0.00 0.00 7 1014.0
20260906065813 79 15 1.7 1.7 0.00 0.00 0.00 7 1014.0
20260906065313 80 20 0.9 1.7 0.00 0.00 0.00 7 1014.0
20260906064813 80 27 1.7 2.6 0.00 0.00 0.00 7 1014.0
20260906064313 80 45 0.9 1.7 0.00 0.00 0.00 7 1014.0
20260906063813 80 96 0.0 0.9 0.00 0.00 0.00 7 1014.0
20260906063313 80 132 0.9 1.7 0.00 0.00 0.00 7 1014.0
20260906062814 80 161 0.9 1.7 0.00 0.00 0.00 7 1014.0
20260906062313 80 149 1.7 1.7 0.00 0.00 0.00 7 1014.0
20260906061813 80 130 0.9 1.7 0.00 0.00 0.00 7 1014.0
20260906061313 80 125 1.7 1.7 0.00 0.00 0.00 7 1014.0
20260906060813 80 106 1.7 1.7 0.00 0.00 0.00 7 1014.0
20260906060313 80 122 0.9 1.7 0.00 0.00 0.00 7 1014.0
20260906055813 81 151 1.7 2.6 0.00 0.00 0.00 7 1014.0
20260906055313 81 140 1.7 2.6 0.00 0.00 0.00 7 1014.0
20260906054813 81 120 2.6 2.6 0.00 0.00 0.00 7 1014.0
20260906054313 81 121 1.7 2.6 0.00 0.00 0.00 7 1014.0
20260906053813 81 124 1.7 2.6 0.00 0.00 0.00 7 1014.0
20260906053313 82 119 2.6 2.6 0.00 0.00 0.00 7 1014.0
20260906052813 82 133 0.9 1.7 0.00 0.00 0.00 7 1014.0
20260906052313 82 143 1.7 1.7 0.00 0.00 0.00 7 1014.0
20260906051813 82 153 1.7 2.6 0.00 0.00 0.00 7 1014.0
20260906051313 82 150 0.9 1.7 0.00 0.00 0.00 7 1014.0
20260906050813 82 127 1.7 1.7 0.00 0.00 0.00 7 1014.0
20260906050313 82 126 1.7 2.6 0.00 0.00 0.00 7 1014.0
20260906045814 82 131 0.9 1.7 0.00 0.00 0.00 7 1014.0
20260906045313 83 121 1.7 1.7 0.00 0.00 0.00 7 1014.0
20260906044813 83 142 1.7 1.7 0.00 0.00 0.00 7 1014.0
20260906044313 83 162 3.5 4.3 0.00 0.00 0.00 7 1014.0
20260906043813 83 160 4.3 5.2 0.00 0.00 0.00 7 1014.0
20260906043315 83 162 3.5 4.3 0.00 0.00 0.00 7 1014.0
20260906042813 83 165 4.3 5.2 0.00 0.00 0.00 7 1014.0
20260906042313 83 161 4.3 5.2 0.00 0.00 0.00 7 1014.0
20260906041813 83 165 3.5 4.3 0.00 0.00 0.00 7 1014.0
20260906041313 83 172 4.3 4.3 0.00 0.00 0.00 7 1014.0
20260906040813 83 174 4.3 5.2 0.00 0.00 0.00 7 1014.0
20260906040313 83 189 3.5 4.3 0.00 0.00 0.00 7 1014.0
20260906035815 83 197 2.6 3.5 0.00 0.00 0.00 7 1014.0
20260906035313 83 182 3.5 3.5 0.00 0.00 0.00 7 1014.0
20260906034813 83 171 1.7 2.6 0.00 0.00 0.00 7 1014.0
20260906034313 83 150 1.7 2.6 0.00 0.00 0.00 7 1014.0
20260906033813 83 139 1.7 1.7 0.00 0.00 0.00 7 1014.0
20260906033314 83 136 1.7 2.6 0.00 0.00 0.00 7 1014.0
20260906032813 83 140 1.7 1.7 0.00 0.00 0.00 7 1014.0
20260906032314 83 148 1.7 2.6 0.00 0.00 0.00 7 1014.0
20260906031813 83 162 1.7 2.6 0.00 0.00 0.00 7 1014.0
20260906031313 83 163 1.7 2.6 0.00 0.00 0.00 7 1014.0
20260906030813 84 160 1.7 2.6 0.00 0.00 0.00 7 1014.0
20260906030313 84 188 1.7 2.6 0.00 0.00 0.00 7 1014.0
20260906025813 84 192 1.7 1.7 0.00 0.00 0.00 7 1014.0
20260906025314 84 141 1.7 3.5 0.00 0.00 0.00 7 1014.0
20260906024813 84 128 1.7 2.6 0.00 0.00 0.00 7 1014.0
20260906024315 85 123 1.7 3.5 0.00 0.00 0.00 7 1014.0
20260906023813 85 159 1.7 1.7 0.00 0.00 0.00 7 1014.0
20260906023313 85 161 1.7 1.7 0.00 0.00 0.00 7 1013.0
20260906022813 85 137 1.7 1.7 0.00 0.00 0.00 7 1013.0
20260906022313 85 130 1.7 1.7 0.00 0.00 0.00 7 1013.0
20260906021813 86 106 0.9 1.7 0.00 0.00 0.00 7 1013.0
20260906021314 86 114 1.7 1.7 0.00 0.00 0.00 7 1013.0
20260906020813 86 107 0.9 1.7 0.00 0.00 0.00 7 1013.0
20260906020313 86 109 0.9 1.7 0.00 0.00 0.00 7 1013.0
20260906015815 86 101 0.9 1.7 0.00 0.00 0.00 7 1013.0
20260906015313 86 100 1.7 1.7 0.00 0.00 0.00 7 1013.0
20260906014814 87 100 1.7 1.7 0.00 0.00 0.00 7 1013.0
20260906014314 87 91 1.7 1.7 0.00 0.00 0.00 7 1013.0
20260906013813 87 91 1.7 1.7 0.00 0.00 0.00 7 1013.0
20260906013313 87 87 1.7 1.7 0.00 0.00 0.00 7 1013.0
20260906012813 87 91 1.7 2.6 0.00 0.00 0.00 7 1013.0
20260906012313 87 83 0.9 1.7 0.00 0.00 0.00 7 1013.0
20260906011813 88 62 0.9 1.7 0.00 0.00 0.00 7 1013.0
20260906011313 88 66 1.7 1.7 0.00 0.00 0.00 7 1013.0
20260906010814 88 79 1.7 1.7 0.00 0.00 0.00 7 1012.0
20260906010313 88 73 1.7 1.7 0.00 0.00 0.00 7 1012.0
20260906005813 89 80 1.7 1.7 0.00 0.00 0.00 7 1012.0
20260906005313 89 77 1.7 2.6 0.00 0.00 0.00 7 1012.0
20260906004813 89 71 1.7 2.6 0.00 0.00 0.00 7 1012.0
20260906004313 90 79 1.7 1.7 0.00 0.00 0.00 7 1012.0
20260906003813 90 88 1.7 1.7 0.00 0.00 0.00 7 1012.0
20260906003313 90 86 1.7 2.6 0.00 0.00 0.00 7 1012.0
20260906002813 91 73 2.6 3.5 0.00 0.00 0.00 7 1012.0
20260906002313 91 74 1.7 2.6 0.00 0.00 0.00 7 1012.0
20260906001813 91 73 1.7 2.6 0.00 0.00 0.00 7 1012.0
20260906001313 92 71 1.7 2.6 0.00 0.00 0.00 7 1012.0
20260906000813 92 65 1.7 2.6 0.00 0.00 0.00 7 1012.0
20260906000313 93 60 1.7 2.6 0.00 0.00 0.00 7 1012.0
20260905235813 93 53 1.7 2.6 0.00 0.00 0.00 7 1012.0
20260905235316 94 59 1.7 2.6 0.00 0.00 0.00 7 1012.0
20260905234813 94 54 0.9 1.7 0.00 0.00 0.00 7 1012.0
20260905234313 94 65 1.7 1.7 0.00 0.00 0.00 7 1012.0
20260905233814 94 53 0.9 1.7 0.00 0.00 0.00 7 1012.0
20260905233316 94 53 0.9 1.7 0.00 0.00 0.00 7 1012.0
20260905232813 94 58 0.9 1.7 0.00 0.00 0.00 7 1012.0
20260905232313 94 62 0.9 1.7 0.00 0.00 0.00 7 1012.0
20260905231813 94 65 1.7 2.6 0.00 0.00 0.00 7 1012.0
20260905231313 94 66 0.0 1.7 0.00 0.00 0.00 7 1012.0
20260905230814 94 44 0.9 1.7 0.00 0.00 0.00 7 1012.0
20260905230314 95 51 0.9 1.7 0.00 0.00 0.00 7 1012.0
20260905225813 95 49 1.7 1.7 0.00 0.00 0.00 7 1012.0
20260905225313 95 73 0.9 1.7 0.00 0.00 0.00 7 1012.0
20260905224817 95 70 1.7 1.7 0.00 0.00 0.00 7 1012.0
20260905224313 95 85 0.0 1.7 0.00 0.00 0.00 7 1012.0
20260905223813 95 77 1.7 2.6 0.00 0.00 0.00 7 1012.0
20260905223313 96 85 0.9 1.7 0.00 0.00 0.00 7 1012.0
20260905222813 96 80 1.7 1.7 0.00 0.00 0.00 7 1012.0
20260905222313 96 70 0.9 1.7 0.00 0.00 0.00 7 1012.0
20260905221813 96 90 1.7 2.6 0.00 0.00 0.00 7 1012.0
20260905221314 96 89 1.7 2.6 0.00 0.00 0.00 7 1012.0
20260905220813 96 110 1.7 2.6 0.00 0.00 0.00 7 1012.0
20260905220314 97 99 1.7 2.6 0.00 0.00 0.00 7 1012.0
20260905215813 97 92 2.6 3.5 0.00 0.00 0.00 7 1012.0
20260905215313 97 95 1.7 2.6 0.00 0.00 0.00 7 1012.0
20260905214813 97 115 1.7 2.6 0.00 0.00 0.00 7 1012.0
20260905214314 96 88 1.7 2.6 0.00 0.00 0.00 7 1012.0
20260905213813 97 99 1.7 2.6 0.00 0.00 0.00 7 1013.0
20260905213313 97 74 2.6 3.5 0.00 0.00 0.00 7 1013.0
20260905212813 97 111 3.5 5.2 0.00 0.00 0.00 7 1013.0
20260905212313 98 130 1.7 3.5 0.00 0.00 0.00 7 1013.0
20260905211813 98 90 2.6 5.2 0.00 0.00 0.00 7 1013.0
20260905211313 98 118 3.5 7.0 0.00 0.00 0.00 7 1013.0
20260905210815 98 113 2.6 3.5 0.00 0.00 0.00 7 1013.0
20260905210313 99 112 3.5 4.3 0.00 0.00 0.00 7 1013.0
20260905205813 99 112 1.7 3.5 0.00 0.00 0.00 7 1013.0
20260905205340 99 108 3.5 5.2 0.00 0.00 0.00 7 1013.0
20260905204813 98 185 2.6 5.2 0.00 0.00 0.00 7 1013.0
20260905204313 98 122 3.5 4.3 0.00 0.00 0.00 7 1013.0
20260905203813 98 183 5.2 7.0 0.00 0.00 0.00 7 1013.0
20260905203313 98 132 3.5 6.1 0.00 0.00 0.00 7 1013.0
20260905202813 98 122 4.3 6.1 0.00 0.00 0.00 7 1013.0
20260905202314 98 173 1.7 3.5 0.00 0.00 0.00 7 1013.0
20260905201814 98 123 2.6 3.5 0.00 0.00 0.00 7 1014.0
20260905201313 98 171 6.1 7.8 0.00 0.00 0.00 7 1014.0
20260905200814 98 105 2.6 3.5 0.00 0.00 0.00 7 1014.0
20260905200313 97 118 2.6 5.2 0.00 0.00 0.00 7 1014.0
20260905195813 97 163 6.1 7.8 0.00 0.00 0.00 7 1014.0
20260905195313 97 171 4.3 6.1 0.00 0.00 0.00 7 1014.0
20260905194814 97 118 2.6 2.6 0.00 0.00 0.00 7 1014.0
20260905194313 97 91 2.6 3.5 0.00 0.00 0.00 7 1014.0
20260905193814 98 115 4.3 6.1 0.00 0.00 0.00 7 1014.0
20260905193313 98 121 4.3 6.1 0.00 0.00 0.00 7 1014.0
20260905192815 97 172 5.2 7.8 0.00 0.00 0.00 7 1014.0
20260905192314 97 97 4.3 5.2 0.00 0.00 0.00 7 1014.0
20260905191814 98 110 2.6 3.5 0.00 0.00 0.00 7 1014.0
20260905191314 98 164 3.5 7.0 0.00 0.00 0.00 7 1014.0
20260905190813 97 185 4.3 7.0 0.00 0.00 0.00 7 1014.0
20260905190315 97 155 1.7 3.5 0.00 0.00 0.00 7 1014.0
20260905185813 97 155 4.3 7.8 0.00 0.00 0.00 7 1014.0
20260905185314 97 149 4.3 7.8 0.00 0.00 0.00 7 1014.0
20260905184814 97 203 5.2 6.1 0.00 0.00 0.00 7 1014.0
20260905184313 96 190 4.3 6.1 0.00 0.00 0.00 7 1014.0
20260905183814 96 148 5.2 7.0 0.00 0.00 0.00 7 1014.0
20260905183315 96 124 3.5 5.2 0.00 0.00 0.00 7 1015.0
20260905182813 96 173 5.2 7.0 0.00 0.00 0.00 7 1015.0
20260905182314 95 163 4.3 7.8 0.00 0.00 0.00 7 1015.0
20260905181813 95 165 6.1 7.8 0.00 0.00 0.00 7 1015.0
20260905181313 95 155 7.0 8.7 0.00 0.00 0.00 7 1015.0
20260905180813 95 122 4.3 5.2 0.00 0.00 0.00 7 1015.0
20260905180314 95 156 4.3 7.0 0.00 0.00 0.00 7 1015.0
20260905175814 95 158 3.5 5.2 0.00 0.00 0.00 7 1015.0